Farmville, Virginia, United States (23901)
Lat: 37.30N, Lon: 78.39W
Wx Zone: VAZ060
Local Info
Past Weather Observations for Today

NOTE: This archive is for the closest National Weather Service station to Farmville. Information may differ from the station used for current weather conditions.

Click here for Long-term Archive

Time Weather Temperature Dewpoint Humidity Pressure Winds Precip Visibility
14:54
Partly Cloudy
90°F / 32°C 64°F / 18°C 43% 30.09 in
(1019 mb)
NNE 6.9 mph
(NNE 11 kph)
- 10SM
13:54
Partly Cloudy
90°F / 32°C 63°F / 17°C 41% 30.09 in
(1019 mb)
Variable 3.5 mph
(Variable 6 kph)
- 10SM
12:54
Mostly Cloudy
86°F / 30°C 61°F / 16°C 43% 30.12 in
(1020 mb)
NE 5.8 mph
(NE 9 kph)
- 10SM
11:54
Partly Cloudy
86°F / 30°C 64°F / 18°C 49% 30.12 in
(1020 mb)
NNE 4.6 mph
(NNE 7 kph)
- 10SM
10:54
Clear
88°F / 31°C 64°F / 18°C 46% 30.15 in
(1021 mb)
Calm - 10SM
09:54
Clear
84°F / 29°C 64°F / 18°C 51% 30.15 in
(1021 mb)
N 5.8 mph
(N 9 kph)
- 10SM
08:54
Clear
81°F / 27°C 66°F / 19°C 62% 30.15 in
(1021 mb)
N 5.8 mph
(N 9 kph)
- 10SM
07:54
Clear
73°F / 23°C 68°F / 20°C 83% 30.15 in
(1021 mb)
Calm - 10SM
06:54
Clear
64°F / 18°C 64°F / 18°C 100% 30.12 in
(1020 mb)
Calm - 10SM
05:54
Clear
63°F / 17°C 63°F / 17°C 100% 30.12 in
(1020 mb)
Calm - 10SM
05:24
Clear
63°F / 17°C 63°F / 17°C 100% 30.09 in
(1019 mb)
Calm - 10SM
05:10
Clear
Fog And Mist
63°F / 17°C 63°F / 17°C 100% 30.09 in
(1019 mb)
Calm - 2SM
05:01
Partly Cloudy
Fog And Mist
63°F / 17°C 63°F / 17°C 100% 30.09 in
(1019 mb)
Calm - 1 1/4SM
04:54
Mostly Cloudy
Fog And Mist
63°F / 17°C 63°F / 17°C 100% 30.09 in
(1019 mb)
Calm - 2SM
04:48
Mostly Cloudy
Fog And Mist
63°F / 17°C 63°F / 17°C 100% 30.09 in
(1019 mb)
Calm - 1 1/2SM
04:32
Obscured
Fog
64°F / 18°C 64°F / 18°C 100% 30.09 in
(1019 mb)
Calm - 1/2SM
04:21
Obscured
Fog And Mist
64°F / 18°C 64°F / 18°C 100% 30.09 in
(1019 mb)
Calm - 3/4SM
04:14
Partly Cloudy
Fog And Mist
64°F / 18°C 64°F / 18°C 100% 30.09 in
(1019 mb)
Calm - 1 1/4SM
04:06
Clear
Fog And Mist
64°F / 18°C 64°F / 18°C 100% 30.09 in
(1019 mb)
Calm - 2SM
04:03
Clear
Fog And Mist
63°F / 17°C 63°F / 17°C 100% 30.09 in
(1019 mb)
Calm - 1 1/4SM
03:54
Obscured
Fog And Mist
64°F / 18°C 64°F / 18°C 100% 30.09 in
(1019 mb)
Calm - 1SM
03:41
Partly Cloudy
Fog And Mist
63°F / 17°C 63°F / 17°C 100% 30.09 in
(1019 mb)
Calm - 1 1/4SM
03:33
Obscured
Fog
64°F / 18°C 64°F / 18°C 100% 30.09 in
(1019 mb)
Calm - 1/2SM
03:25
Obscured
Fog And Mist
64°F / 18°C 64°F / 18°C 100% 30.09 in
(1019 mb)
Calm - 1SM
03:23
Clear
Fog And Mist
64°F / 18°C 64°F / 18°C 100% 30.09 in
(1019 mb)
Calm - 1 3/4SM
02:54
Clear
Fog And Mist
64°F / 18°C 64°F / 18°C 100% 30.09 in
(1019 mb)
Calm - 5SM
01:54
Clear
Fog And Mist
64°F / 18°C 64°F / 18°C 100% 30.09 in
(1019 mb)
Calm - 4SM
00:54
Clear
66°F / 19°C 66°F / 19°C 100% 30.12 in
(1020 mb)
SSW 3.5 mph
(SSW 6 kph)
- 10SM
Time Weather Temperature Dewpoint Humidity Pressure Winds Precip Visibility


Weather for websites

WeatherForYou.com, LLC is not responsible for any damages or problems caused by this service. Current weather conditions are obtained from the closest station including government and personal stations which may have varying degrees of accuracy. Weather forecasts are derived from the NOAA NDFD. Like all things, this site belongs to Jesus Christ... He just trusts us to maintain it. If you have any questions or comments email webmaster@weatherforyou.com

Copyright © 2015, WeatherForYou.com LLC. All rights reserved.